Regional Weather Roundup
Issued by NWS Glasgow, MT

Home | Current Version | Previous Version | Text Only | Print | Product List | Glossary On
Versions: 1 2 3 4 5 6 7 8 9 10 11 12 13 14 15 16 17 18 19 20 21 22 23 24 25 26 27 28 29 30 31 32 33 34 35 36 37 38 39 40 41 42 43 44 45 46 47 48 49 50
000
ASUS45 KGGW 230815
RWRGGW
HOURLY REGIONAL WEATHER ROUNDUP FOR NORTHEAST MONTANA
NATIONAL WEATHER SERVICE GLASGOW MONTANA
200 AM MDT TUE MAY 23 2017

NOTE: "FAIR" INDICATES FEW OR NO CLOUDS BELOW 12,000 FEET WITH NO
SIGNIFICANT WEATHER AND/OR OBSTRUCTIONS TO VISISBILITY.

NORTHEAST MONTANA


CITY           SKY/WX    TMP DP  RH WIND       PRES   REMARKS
GLASGOW        CLEAR     45  32  60 N5        30.17F
PLENTYWOOD       N/A     48  32  53 W3          N/A
WOLF POINT     CLEAR     42  33  70 S7        30.17S
JORDAN           N/A     38  32  79 CALM      30.19F
WINNETT          N/A     36  34  92 SW1         N/A
SIDNEY         CLEAR     49  34  56 N5        30.16R
GLENDIVE       CLEAR     48  33  56 NW9       30.17R
MALTA            N/A     39  34  82 CALM        N/A
SCOBEY           N/A     38  28  68 MISG      30.14F
OPHEIM           N/A     52  28  40 N1        30.02F

FORT PECK REPORTS


CITY           SKY/WX    TMP DP  RH WIND       PRES   REMARKS
FORT PECK        N/A     49  34  56 NW2         N/A

SOUTHEAST MONTANA


CITY           SKY/WX    TMP DP  RH WIND       PRES   REMARKS
BILLINGS       NOT AVBL
MILES CITY     CLEAR     42  35  76 NW9       30.17F
BAKER          CLOUDY    48  38  68 NW5       30.16R
LIVINGSTON     CLEAR     38  35  89 CALM      30.25S

CENTRAL MONTANA


CITY           SKY/WX    TMP DP  RH WIND       PRES   REMARKS
HAVRE          CLOUDY    49  34  56 CALM      30.16F
LEWISTOWN      CLEAR     41  34  76 SE8       30.23S
GREAT FALLS    CLEAR     46  40  79 SW5       30.18F
CUT BANK       CLEAR     49  34  56 S8        30.17F
HELENA         CLEAR     51  41  68 CALM      30.20F
BUTTE          CLEAR     41  35  79 S6        30.28S
BOZEMAN        CLEAR     43  37  79 CALM      30.24S

WESTERN MONTANA


CITY           SKY/WX    TMP DP  RH WIND       PRES   REMARKS
MISSOULA       CLEAR     51  40  65 NE3       30.17S
KALISPELL      NOT AVBL

NORTH DAKOTA


CITY           SKY/WX    TMP DP  RH WIND       PRES   REMARKS
WILLISTON      CLEAR     40  35  83 NW5       30.16S
DICKINSON      CLOUDY    43  34  70 N6        30.12S
MINOT          PTCLDY    47  37  68 W12       30.10S
BISMARCK       CLOUDY    51  39  63 NW8       30.05F

SOUTHERN SASKATCHEWAN


CITY           SKY/WX    TMP DP  RH WIND       PRES   REMARKS
REGINA         CLEAR     45  30  57 SE7       30.15S
ESTEVAN        PTCLDY    41  36  81 W2        30.15S
SWIFT CURRENT  CLEAR     45  30  57 S9        30.16R




USA.gov is the U.S. government's official web portal to all federal, state and local government web resources and services.